Regional Weather Roundup
Issued by NWS

Home | Current Version | Previous Version | Text Only | Print | Product List | Glossary On
Versions: 1 2 3 4 5 6 7 8 9 10 11 12 13 14 15 16 17 18 19 20 21 22 23 24 25 26 27 28 29 30 31 32 33 34 35 36 37 38 39 40 41 42 43 44 45 46 47 48 49 50
184
ASUS43 KDTX 121601
RWRMI
MICHIGAN HOURLY REGIONAL WEATHER ROUNDUP
NATIONAL WEATHER SERVICE DETROIT/PONTIAC MI
1100 AM EST FRI FEB 12 2016

NOTE: "FAIR" INDICATES FEW OR NO CLOUDS BELOW 12,000 FEET WITH NO
SIGNIFICANT WEATHER AND/OR OBSTRUCTION TO VISIBILITY.

MIZ047>049-052>055-059>063-066>070-074>076-081>083-121700-
SOUTHEAST LOWER MICHIGAN

CITY           SKY/WX    TMP DP  RH WIND       PRES   REMARKS
ADRIAN         CLOUDY    20  10  65 W15       30.04F WCI   6
ALMA           FLURRIES  22  12  66 W17       29.98F WCI   7
ANN ARBOR      LGT SNOW  20  11  68 W14       30.01F WCI   7
BAD AXE        PTSUNNY   20  10  63 W15G21    29.93F WCI   7
DETROIT CITY   CLOUDY    20   9  62 SW13G23   30.01F WCI   7
DETROIT        CLOUDY    21  10  62 SW17      30.03F WCI   7
FLINT          LGT SNOW  22  13  68 W13       29.97F WCI  10
GROSSE ILE     CLOUDY    21  10  63 SW12      30.03F WCI   9
HILLSDALE      CLOUDY    20  10  66 W13G20    30.00F WCI   7
HOWELL         LGT SNOW  21  14  76 W14       29.98S WCI   8

CITY           SKY/WX    TMP DP  RH WIND       PRES   REMARKS
JACKSON        LGT SNOW  20  12  71 SW14      30.00F WCI   7
LAMBERTVILLE   CLOUDY    21  10  63 W8G17     30.06F WCI  11
LANSING        LGT SNOW  20  15  81 W14       29.99F VSB 1   WCI   7
LAPEER         LGT SNOW  19  15  82 W10       29.96F WCI   8
MASON          LGT SNOW  20  15  80 W10       29.99F WCI   9
MONROE         CLOUDY    21  11  65 SW15      30.04F WCI   8
MT. CLEMENS    FLURRIES  21  10  63 SW14      29.98F WCI   8
PONTIAC        LGT SNOW  19  11  70 SW15G21   29.96F WCI   5
PORT HOPE        N/A     22   9  57 W9G22     29.91F WCI  12
PORT HURON     FLURRIES  19  12  73 SW8       29.98F WCI   9
TRI CITIES     CLOUDY    22   9  57 W15       29.97F WCI   9
MIDLAND        CLOUDY    20   9  60 W12G20    29.96F WCI   9
TROY           CLOUDY    22  11  64 SW9G16    30.01F WCI  11
SAGINAW HB     LGT SNOW  21  16  79 W13       29.97F WCI   9
$$
MIZ043>046-050>051-056>058-064>065-071>073-077>080-121700-
SOUTHWEST LOWER MICHIGAN

CITY           SKY/WX    TMP DP  RH WIND       PRES   REMARKS
BATTLE CREEK   LGT SNOW  20  15  81 SW14      30.01F VSB 3/4 WCI   7
BENTON HARBOR  LGT SNOW  22  16  78 W14G21    30.08F VSB 1   WCI   9
BIG RAPIDS     PTSUNNY   17   8  66 NW9G23    29.97S WCI   6
COLDWATER      CLOUDY    21  13  71 W13       30.03F WCI   8
FREMONT        LGT SNOW  19  13  76 NW15G21   30.02R WCI   5
HOLLAND        LGT SNOW  21  15  78 NW16      30.05S WCI   7
GRAND RAPIDS   LGT SNOW  21  17  84 NW13      30.01F VSB 3/4 WCI   9
IONIA          LGT SNOW  21  14  76 NW13G21   29.99F WCI   8
KALAMAZOO      LGT SNOW  20  15  81 SW9       30.03F VSB 1   WCI   9
LUDINGTON      CLOUDY    18   6  59 NW13G22   30.04S WCI   4
MARSHALL       LGT SNOW  21  15  79 SW14      30.01F WCI   8
MOUNT PLEASANT CLOUDY    21   8  58 W9        29.96F WCI  11
MUSKEGON       LGT SNOW  20   8  60 NW16G26   30.04S WCI   6
SOUTH HAVEN    LGT SNOW  22  17  80 NW15G22   30.06F WCI   9
$$
MIZ016>042-121700-
NORTHERN LOWER MICHIGAN

CITY           SKY/WX    TMP DP  RH WIND       PRES   REMARKS
ALPENA         CLOUDY    18   8  65 NW13      29.88F WCI   5
BEAVER ISLAND  PTSUNNY   17   8  68 NW15G25   29.94S WCI   2
BELLAIRE       LGT SNOW  19   6  55 NW8G22    29.95S WCI   9
CADILLAC       LGT SNOW  16   8  71 W14G21    29.92S WCI   2
CHARLEVOIX     CLOUDY    18   7  63 NW21G35   29.96R HAZE    WCI   1
FRANKFORT      LGT SNOW  17   8  68 NW21G29   30.00F WCI   0
GRAYLING       LGT SNOW  16   9  75 W14G24    29.90S WCI   1
HARBOR SPRINGS LGT SNOW  16  11  82 W10G20    29.91R VSB 3/4 WCI   3
HOUGHTON LAKE  LGT SNOW  16   7  67 W14G21    29.91F WCI   2
MANISTEE       CLOUDY    18   3  53 NW17G23   30.02S WCI   2
OSCODA         LGT SNOW  19  12  74 NW12      29.90F WCI   6
PELLSTON       LGT SNOW  16   9  74 NW18G26   29.90S WCI   0
ROGERS CITY    CLOUDY    19   8  62 W13G21    29.88S WCI   6
TRAVERSE CITY  FLURRIES  18   6  59 NW14G23   29.97S WCI   4
$$
MIZ007>008-015-121700-
EASTERN UPPER MICHIGAN

CITY           SKY/WX    TMP DP  RH WIND       PRES   REMARKS
KINROSS        CLOUDY    10   3  72 N7        29.90R WCI   0
MACKINAC ISLAN LGT SNOW  13   6  76 N12G20    29.89R WCI  -1
NEWBERRY       LGT SNOW  11   6  82 NW15G26   29.93R VSB 3/4 WCI  -6
S. S. MARIE    MOSUNNY   12  -4  48 N12       29.91R WCI  -2
$$
MIZ004>006-011>014-085-121700-
CENTRAL UPPER MICHIGAN

CITY           SKY/WX    TMP DP  RH WIND       PRES   REMARKS
MANISTIQUE     LGT SNOW  13   8  79 NW14G23   29.97R WCI  -2
ESCANABA       CLOUDY    12   5  73 N9G16     30.04R WCI   0
MENOMINEE      PTSUNNY   14  -2  48 NW10G18   30.05S WCI   1
SAWYER-GWINN   SNOW       7   1  78 N20G28    29.99R VSB 1/2 WCI -13
$$
MIZ001>003-009>011-084-121700-
WESTERN UPPER MICHIGAN

CITY           SKY/WX    TMP DP  RH WIND       PRES   REMARKS
IRON MOUNTAIN  HVY SNOW   9   3  77 NW21G33   30.01R VSB<1/4 WCI -11
HOUGHTON       HAZE       2  -4  76 N17G24    30.10R VSB 1/4 WCI -18
COPPER HARBOR    N/A      2  -1  88 N32G44    30.14R WCI -24
IRONWOOD       CLOUDY     3  -2  78 NW20G29   30.15R VSB 1/4 WCI -18
$$

ABBREVIATIONS USED IN REMARKS
   TC - TEMPERATURE IN CELSIUS
  WCI - WIND CHILL INDEX
   HX - HEAT INDEX
  VSB - VISIBILITY





USA.gov is the U.S. government's official web portal to all federal, state and local government web resources and services.